City of Derry Airport

Jump to: basic info | weather | frequencies | runways | comments

Related pages: nearby airports | nearby navaids | notams | map

Basic information (top)

Codes: LDY EGAE
Location: lon 55.042801, lat -7.161110, elev 22 ft / 7 m msl
Status: medium_airport
Scheduled airline service: yes
Links: Wikipedia Mobile

Weather (top)

Current conditions (rec'd 2014/11/21 17:20Z):

EGAE 211720Z 12018G28KT 080V160 9000 -RA FEW012 SCT017 BKN046 10/08 Q1003

Airport forecast for Belfast International Airport 40nm (74km) SE (rec'd 2014/11/21 12:15Z):

TAF TAF EGAA 211101Z 2112/2212 12018G28KT 9999 SCT015 BKN025 
      TEMPO 2112/2204 4000 RA RADZ BKN012 PROB40 
      TEMPO 2115/2204 BKN008 
      BECMG 2122/2124 16010KT 
      BECMG 2204/2208 22012KT PROB40 
      TEMPO 2204/2208 6000 -RADZ BKN005

Frequencies (top)

Verify before use: may be inaccurate or out of date.

APP: 123.625 MHz (APP)
TWR: 134.15 MHz (TWR)

Runways (top)

02/20: 3,955 x 148 ft (1,205 x 45 m) — paved — lighted — threshold 02 displaced 435 ft (133 m)

08/26: 6,076 x 147 ft (1,852 x 45 m) — paved — lighted — threshold 08 displaced 433 ft (132 m)

Latest comments (top)

Excellant airport: You have full services ils , fuel car ... [read]

More... (top)

See also NOTAMs and nearby airports and navaids, or visit the City of Derry Airport page at the main OurAirports website..